SJY514 WAMG-WIII

Flight info

Callsign SJY514
Flight time N/A
Altitude 34000
Route OBDEX T14 AKSOX
Aircraft B738/M-SDE2E3FGHIRWXY/LB1

Departure

Time 2026-04-22 12:17
Airport Jalaluddin Airport (WAMG)

Arrival

Time N/A
Airport Soekarno-Hatta International Airport (WIII)
Time Latitude Longitude Altitude Speed Heading
2026-04-22 11:57 0.64009 122.84468 133 ft 0 kts
2026-04-22 12:09 0.64008 122.84468 133 ft 1 kts
2026-04-22 12:09 0.63994 122.84467 133 ft 2 kts
2026-04-22 12:09 0.63979 122.84465 133 ft 2 kts
2026-04-22 12:10 0.63964 122.84463 133 ft 2 kts
2026-04-22 12:10 0.63951 122.84462 133 ft 1 kts
2026-04-22 12:10 0.63944 122.84463 133 ft 1 kts 307°
2026-04-22 12:10 0.63941 122.84474 133 ft 2 kts 265°
2026-04-22 12:11 0.63940 122.84489 133 ft 1 kts 281°
2026-04-22 12:11 0.63940 122.84493 133 ft 0 kts 280°
2026-04-22 12:13 0.63940 122.84491 133 ft 0 kts 280°
2026-04-22 12:13 0.63944 122.84465 133 ft 5 kts 277°
2026-04-22 12:13 0.63948 122.84427 133 ft 7 kts 276°
2026-04-22 12:14 0.63953 122.84380 133 ft 6 kts 274°
2026-04-22 12:14 0.63938 122.84351 133 ft 4 kts 209°
2026-04-22 12:14 0.63887 122.84340 133 ft 8 kts 187°
2026-04-22 12:14 0.63832 122.84332 133 ft 7 kts 187°
2026-04-22 12:15 0.63793 122.84303 133 ft 8 kts 265°
2026-04-22 12:15 0.63801 122.84242 133 ft 11 kts 277°
2026-04-22 12:15 0.63812 122.84148 133 ft 14 kts 276°
2026-04-22 12:15 0.63825 122.84044 133 ft 15 kts 277°
2026-04-22 12:16 0.63837 122.83948 133 ft 12 kts 276°
2026-04-22 12:16 0.63829 122.83866 133 ft 10 kts 257°
2026-04-22 12:16 0.63834 122.83815 133 ft 5 kts 333°
2026-04-22 12:16 0.63850 122.83836 133 ft 4 kts 97°
2026-04-22 12:17 0.63843 122.83888 133 ft 25 kts 97°
2026-04-22 12:17 0.63797 122.84264 133 ft 95 kts 97°
2026-04-22 12:17 0.63685 122.85171 134 ft 160 kts 97°
2026-04-22 12:17 0.63539 122.86305 720 ft 165 kts 95°
2026-04-22 12:18 0.63419 122.87417 1417 ft 168 kts 95°
2026-04-22 12:18 0.63082 122.88532 2013 ft 172 kts 124°
2026-04-22 12:18 0.62152 122.89167 2529 ft 175 kts 168°
2026-04-22 12:18 0.61002 122.88866 2986 ft 174 kts 228°
2026-04-22 12:19 0.60586 122.87865 3688 ft 157 kts 269°
2026-04-22 12:19 0.60942 122.86776 3802 ft 177 kts 301°
2026-04-22 12:19 0.61598 122.85712 4245 ft 183 kts 304°
2026-04-22 12:19 0.62246 122.84628 4725 ft 189 kts 302°
2026-04-22 12:20 0.62940 122.83459 5006 ft 210 kts 302°